Regional Weather Roundup
Issued by NWS

Home | Current Version | Previous Version | Graphics & Text | Print | Product List | Glossary On
Versions: 1 2 3 4 5 6 7 8 9 10 11 12 13 14 15 16 17 18 19 20 21 22 23 24 25 26 27 28 29 30 31 32 33 34 35 36 37 38 39 40 41 42 43 44 45 46 47 48 49 50
000
ASUS43 KMKX 302221
RWRWI

WISCONSIN REGIONAL WEATHER ROUNDUP
NATIONAL WEATHER SERVICE MILWAUKEE/SULLIVAN WI
500 PM CDT SUN AUG 30 2015

NOTE: "FAIR" INDICATES FEW OR NO CLOUDS BELOW 12,000 FEET WITH NO
SIGNIFICANT WEATHER AND/OR OBSTRUCTIONS TO VISIBILITY.

WIZ001-002-006>008-014>016-023>028-302300-
NORTHWEST WISCONSIN

CITY           SKY/WX    TMP DP  RH WIND       PRES   REMARKS
SUPERIOR ARPT  SUNNY     81  67  62 SW12      29.85F HX  84
ASHLAND        SUNNY     81  65  58 SW10G17   29.89S HX  83
HAYWARD        SUNNY     78  62  57 SW13      29.93F HX  80
SIREN          SUNNY     80  65  59 SW10      29.92S HX  82
CUMBERLAND     SUNNY     73  63  68 S10       29.96S
RICE LAKE      SUNNY     75  64  66 S9G16     29.97S
CHETEK         SUNNY    N/A N/A N/A S12       29.95F
LADYSMITH      SUNNY     77  65  65 S8        29.98F
EAU CLAIRE     SUNNY     76  63  64 S9        29.96F
MENOMONIE      SUNNY     77  65  67 S8        29.97F
NEW RICHMOND   SUNNY     78  63  61 S13       29.95S
OSCEOLA        SUNNY     79  65  62 S12       29.96S HX  81
$$

WIZ003>005-009-010-017-018-302300-
NORTH CENTRAL WISCONSIN

CITY           SKY/WX    TMP DP  RH WIND       PRES   REMARKS
MANITOWISH WTR SUNNY     78  63  60 SW9       29.96S HX  80
ARBOR VITAE    SUNNY     77  65  65 SW9       29.96F
WOODRUFF       SUNNY     77  65  65 SW9       29.96F
RHINELANDER    SUNNY     77  63  61 SW8       29.99F
EAGLE RIVER    SUNNY     76  60  57 SW9       29.96F
LAND O LAKES   MOSUNNY   78  62  57 SW8       29.97S
PHILLIPS       SUNNY     77  64  65 SW8       29.96F
TOMAHAWK       SUNNY     76  64  65 S3        29.99S
MEDFORD        SUNNY     74  65  73 S9        30.00S
MERRILL        SUNNY     77  65  66 SW10      29.99F
$$

WIZ029-030-035-036-043>047-302300-
CENTRAL WISCONSIN

CITY           SKY/WX    TMP DP  RH WIND       PRES   REMARKS
WAUSAU         SUNNY     77  64  64 SW8       29.98F
MOSINEE        SUNNY     75  64  69 SW10      30.01F
MARSHFIELD     SUNNY     77  63  61 SW9       30.00F
STEVENS POINT  SUNNY     74  61  63 SW9       30.00F
WAUPACA        SUNNY     77  65  65 S8        30.00F
WAUTOMA        SUNNY     77  65  66 SW9       30.01F
WISC RAPIDS    SUNNY     75  62  64 S9        30.01F
CAMP DOUGLAS   SUNNY     76  72  87 SW8       30.00F
$$

WIZ011>013-019>022-031-037>040-048>050-302300-
NORTHEAST WISCONSIN

CITY           SKY/WX    TMP DP  RH WIND       PRES   REMARKS
ANTIGO         SUNNY     76  62  61 W10       30.00F
SHAWANO        SUNNY     77  65  65 SW6       29.99F
OCONTO         SUNNY     75  65  70 SW8       29.98S
STURGEON BAY   SUNNY     73  63  68 SW6       30.01S
GREEN BAY      SUNNY     74  65  73 SW6       30.00F
MANITOWOC      SUNNY     69  62  78 MISG      30.01F
APPLETON       MOSUNNY   73  63  68 SW8       30.00F
CLINTONVILLE   SUNNY     73  63  68 SW8       29.99F
OSHKOSH        SUNNY     73  63  70 SW8       30.01F
$$

WIZ032>034-041-042-053>061-302300-
SOUTHWEST WISCONSIN

CITY           SKY/WX    TMP DP  RH WIND       PRES   REMARKS
LA CROSSE      PTSUNNY   76  64  66 S12       29.99F
SPARTA         SUNNY     75  62  64 S6        30.02S
VIROQUA          N/A     72  64  75 SW7       30.04S
BOSCOBEL       SUNNY     76  64  66 S7        30.02F
PRAIRIE DU CHI MOSUNNY   74  62  64 S3        30.02S
PLATTEVILLE    SUNNY     73  67  79 SW6       30.03F
$$

WIZ056-057-062-063-064-067-068-302300-
SOUTH CENTRAL WISCONSIN

CITY           SKY/WX    TMP DP  RH WIND       PRES   REMARKS
REEDSBURG      SUNNY     75  65  72 SW8       30.01F
BARABOO/DELLS  SUNNY     75  62  64 SW7       30.02F
LONE ROCK      MOSUNNY   75  64  68 SW7       30.02F
MINERAL POINT  MOSUNNY   75  64  69 SW6       30.04F
MADISON        PTSUNNY   74  62  66 SW5       30.02F
MIDDLETON      SUNNY     76  63  64 SW5       30.03F
WATERTOWN      MOSUNNY   72  65  78 W5        30.03S
MONROE         SUNNY     73  63  68 SW3       30.04S
JANESVILLE     MOSUNNY   75  63  64 VRB3      30.03
$$

WIZ051-052-058>065-066-070>072-302300-
SOUTHEAST WISCONSIN

CITY           SKY/WX    TMP DP  RH WIND       PRES   REMARKS
MILWAUKEE      PTSUNNY   70  62  76 SE8       30.02F
WAUKESHA       MOSUNNY   72  63  73 SW5       30.04F
MILWAUKEE/TIMM MOSUNNY   73  61  64 W5        30.03F
RACINE         SUNNY     70  61  73 S7        30.05S
BURLINGTON     MOSUNNY   72  62  71 S6        30.03F
KENOSHA        CLOUDY    71  64  78 SE8       30.03F
FOND DU LAC    SUNNY     73  64  73 SW7       30.02F
SHEBOYGAN      SUNNY     71  64  78 S7        30.02S
WEST BEND      MOSUNNY   72  61  68 CALM      30.03S
JUNEAU         MOSUNNY   71  63  76 SW5       30.05S
$$

LSZ147-162-302300-
LAKE SUPERIOR

STATION/POSITION TIME  TEMP    WIND        PRES    WAVE
                       AIR SEA DIR/SP/G            HT/PER
                 (UTC) (F)     (DEG/KT/KT) (MB)    (FT/S)
W MID LAKE BUOY  2150   60 56  220/  6/  8 1010.8F   1
DEVILS ISLAND    2200   67     220/  9/ 12 1010.8F
PORT WING        2140   81     200/ 10/ 15 1011.2F
SAXON HARBOR     2140   83     210/  7/ 13 1011.2F
$$

LMZ867-665-643>646-302300-
LAKE MICHIGAN

STATION/POSITION TIME  TEMP    WIND        PRES    WAVE
                       AIR SEA DIR/SP/G            HT/PER
                 (UTC) (F)     (DEG/KT/KT) (MB)    (FT/S)
CHAMBERS ISLAND  2100   71     190/  5/ 14 1015.2S
S GREEN BAY BUOY 2100   68 64  200/ 10/ 12 1017.0
N MID LAKE BUOY  2150   65 65  200/ 14/ 17 1014.9F   2/ 3
NORTHPORT PIER   2100   68     150/  7/  9 1014.9F
SHEBOYGAN LAKESH 2200   63     180/ 15/ 15 1016.9F
PORT WASHINGTON  2140   64     190/  4/  6 1017.6F
ATWATER BUOY     2200   58 51  190/  4/  4 1018.2F
MILWAUKEE LAKESH 2100   62     160/  1/  2   N/A
S MID LAKE BUOY  2150   67 69  330/  2/  4 1016.9F   1
KENOSHA   LAKESH 2200   65     150/  8/  9 1016.6F
$$

TC  - TEMPERATURE IN CELSIUS
VSB - VISIBILITY IN STATUTE MILES
WCI - WIND CHILL INDEX
HX  - HEAT INDEX




USA.gov is the U.S. government's official web portal to all federal, state and local government web resources and services.